Location: Arthez
(43.0833°N, 0.2500°W)
Time: 12:55:48
(UTC+00:00)

Cosmos 44 - Pass Details

Date: 23 October 2021
Orbit: 580 x 782 km, 65.1° (Epoch: 07 December)

Event Time Altitude Azimuth Distance (km) Brightness Sun altitude
Rises 19:34:59 0° 230° (SW) 3,253 7.3 -27.9°
Reaches altitude 10° 19:37:29 10° 236° (SW) 2,331 6.5 -28.3°
Maximum altitude 19:42:40 47° 310° (NW) 1,022 4.4 -29.3°
Enters shadow 19:44:09 37° 352° (N) 1,182 4.5 -29.5°
